User: anonymous   Login
Location: Unspecified
(0.0000°N, 0.0000°E)
Time: 20:13:58
(UTC+00:00)
Language:

STARLINK-3043 - Orbit

View from above orbital plane
View from above orbital plane
View from above satellite
View from above satellite

Ground track
Ground track

The orbit is defined by the following mean orbital elements,

1 49179U          26145.48746175 +.00000000 +00000-0 -77501-5 0 00009
2 49179  70.0008  60.8136 0002544 269.8921  90.1946 14.98328949    09
Epoch (UTC): 25 May 2026 11:41:56
Eccentricity: 0.0002544
inclination: 70.0008°
perigee height: 570 km
apogee height: 574 km
right ascension of ascending node: 60.8136°
argument of perigee: 269.8921°
revolutions per day: 14.98328949
mean anomaly at epoch: 90.1946°

The dashed part of the orbit path shows where the satellite is in the earth's shadow,  

DLR